Change the Weather History Date:

Monday, January 14, 2013

  Actual Average Record
Temperature  
Mean Temperature 21 °F 36 °F  
Max Temperature 30 °F 46 °F 76 °F (1928)
Min Temperature 12 °F 26 °F -5 °F (1979)
Degree Days  
Heating Degree Days 44 29  
Month to date heating degree days 390 406  
Since 1 July heating degree days 1798 2005  
Cooling Degree Days 0 0  
Month to date cooling degree days 0 0  
Year to date cooling degree days 0 0  
Moisture  
Dew Point 12 °F    
Average Humidity 65    
Maximum Humidity 88    
Minimum Humidity 42    
Precipitation  
Precipitation T in 0.09 in 2.30 in (1937)
Month to date precipitation 1.27 1.18  
Year to date precipitation 1.27 1.18  
Snow  
Snow T in 0.10 in 5.00 in (1918)
Month to date snowfall T 1.4  
Since 1 July snowfall 0.3 3.2  
Snow Depth 0.00 in    
Sea Level Pressure  
Sea Level Pressure 30.40 in    
Wind  
Wind Speed 3 mph (North)    
Max Wind Speed 10 mph    
Max Gust Speed 15 mph    
Visibility 10 miles    
Events Snow    
T = Trace of Precipitation, MM = Missing Value Source: NWS Daily Summary

Daily Weather History Graph

Daily Weather History Graph

Search for Another Location

Airport or City:

Trip Planner

Search our weather history database for the weather conditions in past years. The results will help you decide how hot, cold, wet, or windy it might be!

Date:

Astronomy

Jan. 14, 2013 Rise Set
Actual Time 7:23 AM CST 5:20 PM CST
Civil Twilight 6:55 AM CST 5:48 PM CST
Nautical Twilight 6:23 AM CST 6:20 PM CST
Astronomical Twilight 5:52 AM CST 6:51 PM CST
Moon 9:04 AM CST (1/14) 8:58 PM CST (1/14)
Length of Visible Light 10h 53m
Length of Day
9h 57m
Waxing Crescent, 11% of the Moon is Illuminated
Jan 14
Waxing Crescent
Jan 18
First Quarter
Jan 26
Full
Feb 3
Last Quarter
Feb 10
New

Hourly Weather History & Observations

Time (CST) Temp. Windchill Dew Point Humidity Pressure Visibility Wind Dir Wind Speed Gust Speed Precip Events Conditions
12:53 AM 17.1 °F 10.0 °F 12.0 °F 81% 30.40 in 10.0 mi WNW 4.6 mph - N/A   Clear
1:53 AM 16.0 °F 8.8 °F 12.0 °F 84% 30.40 in 10.0 mi NW 4.6 mph - N/A   Clear
2:53 AM 16.0 °F 10.4 °F 10.9 °F 81% 30.41 in 10.0 mi WNW 3.5 mph - N/A   Clear
3:53 AM 15.8 °F 8.6 °F 10.4 °F 79% 30.34 in 10.0 mi WNW 4.6 mph - N/A   Clear
4:53 AM 15.1 °F 9.4 °F 10.9 °F 84% 30.37 in 10.0 mi WNW 3.5 mph - N/A   Clear
5:53 AM 15.1 °F 9.4 °F 10.9 °F 84% 30.38 in 10.0 mi WNW 3.5 mph - N/A   Clear
6:53 AM 12.0 °F 5.9 °F 9.0 °F 88% 30.40 in 10.0 mi NW 3.5 mph - N/A   Clear
7:53 AM 17.1 °F - 12.0 °F 81% 30.46 in 10.0 mi Calm Calm - N/A   Mostly Cloudy
8:53 AM 19.0 °F 13.9 °F 12.0 °F 74% 30.49 in 10.0 mi SSE 3.5 mph - N/A   Overcast
9:53 AM 19.9 °F 13.4 °F 12.9 °F 74% 30.49 in 6.0 mi ENE 4.6 mph - 0.00 in Snow Light Snow
10:03 AM 19.4 °F 12.8 °F 12.2 °F 74% 30.42 in 4.0 mi ENE 4.6 mph - 0.00 in Snow Light Snow
10:53 AM 19.9 °F 13.4 °F 12.9 °F 74% 30.50 in 10.0 mi NNW 4.6 mph - 0.00 in   Overcast
11:53 AM 21.0 °F 13.4 °F 16.0 °F 81% 30.46 in 10.0 mi Variable 5.8 mph - N/A   Overcast
12:53 PM 24.1 °F 15.2 °F 14.0 °F 65% 30.42 in 10.0 mi NNE 8.1 mph - N/A   Overcast
1:53 PM 26.1 °F 18.4 °F 12.9 °F 58% 30.40 in 10.0 mi NE 6.9 mph - N/A   Clear
2:53 PM 28.0 °F 21.7 °F 10.0 °F 47% 30.38 in 10.0 mi Variable 5.8 mph - N/A   Clear
3:53 PM 28.4 °F 22.2 °F 8.6 °F 43% 30.33 in 10.0 mi ENE 5.8 mph - N/A   Clear
4:53 PM 27.0 °F 20.5 °F 10.9 °F 51% 30.38 in 10.0 mi NNE 5.8 mph - N/A   Clear
5:53 PM 24.1 °F - 10.9 °F 57% 30.37 in 10.0 mi Calm Calm - N/A   Clear
6:53 PM 23.0 °F - 10.9 °F 60% 30.38 in 10.0 mi Calm Calm - N/A   Clear
7:53 PM 21.9 °F - 10.9 °F 63% 30.38 in 10.0 mi Calm Calm - N/A   Clear
8:53 PM 23.0 °F - 12.0 °F 63% 30.38 in 10.0 mi Calm Calm - N/A   Clear
9:53 PM 21.9 °F 17.2 °F 12.0 °F 66% 30.37 in 10.0 mi NE 3.5 mph - N/A   Clear
10:53 PM 21.0 °F - 12.0 °F 68% 30.37 in 10.0 mi Calm Calm - N/A   Clear
11:53 PM 19.0 °F - 12.9 °F 77% 30.36 in 10.0 mi Calm Calm - N/A   Clear